Fort Dix, NJ

8:32 PM EDT on August 25, 2016 (GMT -0400)
McGuire Air Force Base

Weather History for KWRI - April, 2013

Change the Weather History Date:

Tuesday, April 9, 2013

  Actual Average Record
Temperature  
Mean Temperature 71 °F -  
Max Temperature 83 °F 58 °F 87 °F (2001)
Min Temperature 59 °F 38 °F 27 °F (2016)
Cooling Degree Days 6    
Growing Degree Days 21 (Base 50)    
Moisture  
Dew Point 49 °F    
Average Humidity 51    
Maximum Humidity 73    
Minimum Humidity 25    
Precipitation  
Precipitation 0.00 in - - ()
Sea Level Pressure  
Sea Level Pressure 29.95 in    
Wind  
Wind Speed 10 mph (WSW)    
Max Wind Speed 17 mph    
Max Gust Speed 24 mph    
Visibility 10 miles    
Events      
Averages and records for this station are not official NWS values.
T = Trace of Precipitation, MM = Missing Value Source: NWS Daily Summary

Daily Weather History Graph

Daily Weather History Graph

Search for Another Location

Airport or City:

Trip Planner

Search our weather history database for the weather conditions in past years. The results will help you decide how hot, cold, wet, or windy it might be!

Date:

Astronomy

Apr. 09, 2013 Rise Set
Actual Time 6:29 AM EDT 7:31 PM EDT
Civil Twilight 6:01 AM EDT 7:58 PM EDT
Nautical Twilight 5:28 AM EDT 8:31 PM EDT
Astronomical Twilight 4:54 AM EDT 9:06 PM EDT
Moon 5:50 AM EDT (4/9) 7:04 PM EDT (4/9)
Length of Visible Light 13h 57m
Length of Day
13h 01m
Waning Crescent, 1% of the Moon is Illuminated
Apr 9
Waning Crescent
Apr 10
New
Apr 18
First Quarter
Apr 25
Full
May 2
Last Quarter

Hourly Weather History & Observations

Time (EDT) Temp. Dew Point Humidity Pressure Visibility Wind Dir Wind Speed Gust Speed Precip Events Conditions
12:55 AM 59.5 °F 50.7 °F 73% 29.96 in 10.0 mi SSW 10.4 mph - N/A   Clear
1:55 AM 60.3 °F 51.1 °F 72% 29.95 in 10.0 mi SSW 9.2 mph - N/A   Partly Cloudy
2:55 AM 60.4 °F 51.1 °F 71% 29.93 in 10.0 mi SSW 9.2 mph - N/A   Mostly Cloudy
3:55 AM 62.2 °F 51.1 °F 67% 29.93 in 10.0 mi SW 6.9 mph - N/A   Mostly Cloudy
4:55 AM 61.7 °F 51.1 °F 68% 29.94 in 10.0 mi WSW 8.1 mph - N/A   Clear
5:55 AM 59.9 °F 50.9 °F 72% 29.96 in 10.0 mi WSW 6.9 mph - N/A   Clear
6:55 AM 60.3 °F 51.1 °F 72% 29.97 in 10.0 mi WSW 8.1 mph - N/A   Clear
7:55 AM 61.7 °F 51.4 °F 69% 29.99 in 10.0 mi WSW 10.4 mph - N/A   Clear
8:55 AM 67.3 °F 51.4 °F 57% 29.98 in 10.0 mi WSW 10.4 mph - N/A   Clear
9:55 AM 72.7 °F 51.3 °F 47% 29.99 in 10.0 mi West 15.0 mph 20.7 mph N/A   Clear
10:55 AM 75.7 °F 51.6 °F 43% 29.98 in 10.0 mi WNW 16.1 mph 21.9 mph N/A   Clear
11:55 AM 79.3 °F 49.5 °F 35% 29.98 in 10.0 mi WNW 12.7 mph 18.4 mph N/A   Clear
12:55 PM 80.8 °F 49.8 °F 34% 29.97 in 10.0 mi WNW 13.8 mph 20.7 mph N/A   Clear
1:55 PM 82.2 °F 47.8 °F 30% 29.96 in 10.0 mi NW 15.0 mph 24.2 mph N/A   Clear
2:55 PM 83.1 °F 45.0 °F 26% 29.94 in 10.0 mi WNW 17.3 mph 21.9 mph N/A   Clear
3:55 PM 82.6 °F 43.7 °F 25% 29.93 in 10.0 mi WNW 12.7 mph - N/A   Clear
4:55 PM 82.9 °F 45.5 °F 27% 29.92 in 10.0 mi West 8.1 mph 17.3 mph N/A   Clear
5:55 PM 81.7 °F 46.0 °F 29% 29.93 in 10.0 mi West 8.1 mph - N/A   Clear
6:55 PM 79.0 °F 44.6 °F 30% 29.93 in 10.0 mi West 6.9 mph - N/A   Clear
7:55 PM 72.9 °F 47.3 °F 40% 29.94 in 10.0 mi Calm Calm - N/A   Clear
8:55 PM 66.2 °F 49.6 °F 55% 29.96 in 10.0 mi Calm Calm - N/A   Clear
9:55 PM 64.6 °F 49.3 °F 58% 29.97 in 10.0 mi Calm Calm - N/A   Clear
10:55 PM 67.6 °F 51.1 °F 55% 29.93 in 10.0 mi SSW 10.4 mph - N/A   Clear
11:55 PM 67.3 °F 52.3 °F 59% 29.91 in 10.0 mi SSW 11.5 mph - N/A   Clear